VK2XSE Weather Reports


Display with metric or nautical units.
time (UTC)temp
F
wind
direction
speed
MPH
gust
MPH
rain 1hr
in
rain 24hr
in
rain mn
in
humidity
%
barometer
mb
20221128184516 54 0.0 0.0 0.00 0.00 0.00 81 1013.5
20221128183516 54 0.0 0.0 0.00 0.00 0.00 81 1013.5
20221128182517 55 0.0 0.0 0.00 0.00 0.00 80 1013.3
20221128181516 55 0.0 0.0 0.00 0.00 0.00 80 1013.3
20221128180516 55 0.0 0.0 0.00 0.00 0.00 79 1013.2
20221128175516 55 0.0 0.0 0.00 0.00 0.00 79 1013.1
20221128174518 55 0.0 0.0 0.00 0.00 0.00 78 1012.9
20221128173518 55 0.0 0.0 0.00 0.00 0.00 78 1012.8
20221128172518 55 0.0 0.0 0.00 0.00 0.00 77 1012.8
20221128171518 55 0.0 0.0 0.00 0.00 0.00 76 1012.8
20221128170518 56 0.0 0.0 0.00 0.00 0.00 76 1012.6
20221128165520 56 0.0 0.0 0.00 0.00 0.00 74 1012.6
20221128164518 57 0.0 0.0 0.00 0.00 0.00 73 1012.5
20221128163518 58 0.0 0.0 0.00 0.00 0.00 71 1012.5
20221128162518 58 0.0 0.0 0.00 0.00 0.00 69 1012.4
20221128161518 59 0.0 0.0 0.00 0.00 0.00 68 1012.4
20221128160518 60 0.0 0.0 0.00 0.00 0.00 67 1012.5
20221128155518 60 0.0 0.0 0.00 0.00 0.00 65 1012.5
20221128154520 61 0.0 1.0 0.00 0.00 0.00 65 1012.4
20221128153518 61 0.0 2.0 0.00 0.00 0.00 63 1012.5
20221128152518 61 0.0 2.0 0.00 0.00 0.00 63 1012.5
20221128151517 61 0.0 0.0 0.00 0.00 0.00 62 1012.5
20221128150518 61 0.0 0.0 0.00 0.00 0.00 61 1012.5
20221128145518 61 0.0 0.0 0.00 0.00 0.00 61 1012.5
20221128144518 62 0.0 1.0 0.00 0.00 0.00 61 1012.5
20221128143518 62 0.0 3.0 0.00 0.00 0.00 60 1012.5
20221128142518 62 0.0 0.0 0.00 0.00 0.00 60 1012.5
20221128141518 62 0.0 4.0 0.00 0.00 0.00 59 1012.4
20221128140518 62 248 1.0 4.0 0.00 0.00 0.00 59 1012.4
20221128135519 62 0.0 3.0 0.00 0.00 0.00 60 1012.4
20221128134518 62 248 1.0 5.0 0.00 0.00 0.00 61 1012.3
20221128133518 61 0.0 4.0 0.00 0.00 0.00 62 1012.3
20221128132517 61 0.0 1.0 0.00 0.00 0.00 64 1012.3
20221128131519 61 0.0 0.0 0.00 0.00 0.00 64 1012.2
20221128130517 60 0.0 2.0 0.00 0.00 0.00 65 1012.3
20221128125518 59 0.0 1.0 0.00 0.00 0.00 66 1012.2
20221128124518 59 0.0 0.0 0.00 0.00 0.00 67 1012.2
20221128123517 58 0.0 2.0 0.00 0.00 0.00 68 1012.2
20221128122517 58 0.0 0.0 0.00 0.00 0.00 70 1012.1
20221128121517 58 0.0 0.0 0.00 0.00 0.00 70 1012.0
20221128120517 58 0.0 0.0 0.00 0.00 0.00 70 1012.0
20221128115517 58 0.0 0.0 0.00 0.00 0.00 69 1012.0
20221128114517 58 0.0 1.0 0.00 0.00 0.00 68 1011.9
20221128113517 59 0.0 0.0 0.00 0.00 0.00 66 1011.8
20221128112517 59 0.0 0.0 0.00 0.00 0.00 66 1011.7
20221128111517 59 0.0 0.0 0.00 0.00 0.00 64 1011.5
20221128110516 60 0.0 0.0 0.00 0.00 0.00 64 1011.3
20221128105517 60 0.0 0.0 0.00 0.00 0.00 62 1011.2
20221128104517 60 0.0 1.0 0.00 0.00 0.00 61 1011.1
20221128103517 61 0.0 0.0 0.00 0.00 0.00 60 1010.9
20221128102517 61 0.0 2.0 0.00 0.00 0.00 59 1010.8
20221128101517 61 0.0 0.0 0.00 0.00 0.00 58 1010.7
20221128100517 62 0.0 0.0 0.00 0.00 0.00 57 1010.7
20221128095517 63 0.0 0.0 0.00 0.00 0.00 56 1010.7
20221128094517 63 0.0 0.0 0.00 0.00 0.00 54 1010.5
20221128093517 64 0.0 0.0 0.00 0.00 0.00 53 1010.4
20221128092517 65 0.0 3.0 0.00 0.00 0.00 51 1010.3
20221128091517 65 0.0 1.0 0.00 0.00 0.00 49 1010.2
20221128090517 66 0.0 7.0 0.00 0.00 0.00 48 1010.0
20221128085517 66 0.0 5.0 0.00 0.00 0.00 47 1009.9
20221128084517 67 225 1.0 7.0 0.00 0.00 0.00 46 1009.8
20221128083516 67 248 1.0 4.0 0.00 0.00 0.00 45 1009.7
20221128082518 68 248 1.0 6.0 0.00 0.00 0.00 44 1009.5
20221128081517 69 225 1.0 5.0 0.00 0.00 0.00 44 1009.3
20221128080516 70 0.0 2.0 0.00 0.00 0.00 43 1009.2
20221128075518 70 225 1.0 4.0 0.00 0.00 0.00 41 1009.1
20221128074516 71 225 1.0 8.0 0.00 0.00 0.00 41 1008.9
20221128073516 71 248 1.0 7.0 0.00 0.00 0.00 39 1008.8
20221128072516 72 248 1.0 6.0 0.00 0.00 0.00 40 1008.8
20221128071517 72 248 2.0 7.0 0.00 0.00 0.00 39 1008.7
20221128070516 73 248 1.0 13.0 0.00 0.00 0.00 38 1008.6
20221128065516 73 0.0 3.0 0.00 0.00 0.00 39 1008.5
20221128064521 73 248 1.0 7.0 0.00 0.00 0.00 38 1008.4
20221128063516 73 248 1.0 9.0 0.00 0.00 0.00 38 1008.5
20221128062516 73 270 1.0 6.0 0.00 0.00 0.00 39 1008.3
20221128061517 73 225 2.0 7.0 0.00 0.00 0.00 39 1008.3
20221128060516 73 225 2.0 9.0 0.00 0.00 0.00 39 1008.2
20221128055516 74 248 1.0 13.0 0.00 0.00 0.00 39 1008.3
20221128054516 74 0.0 1.0 0.00 0.00 0.00 40 1008.2
20221128053516 74 248 2.0 11.0 0.00 0.00 0.00 39 1008.3
20221128052518 75 248 1.0 4.0 0.00 0.00 0.00 38 1008.3
20221128051518 74 0.0 6.0 0.00 0.00 0.00 39 1008.3
20221128050518 74 248 1.0 8.0 0.00 0.00 0.00 39 1008.4
20221128045518 74 248 1.0 7.0 0.00 0.00 0.00 39 1008.4
20221128044516 74 225 1.0 6.0 0.00 0.00 0.00 38 1008.3
20221128043518 74 225 2.0 10.0 0.00 0.00 0.00 39 1008.3
20221128042518 74 203 1.0 10.0 0.00 0.00 0.00 39 1008.4
20221128041518 75 248 1.0 5.0 0.00 0.00 0.00 37 1008.4
20221128040518 75 248 1.0 5.0 0.00 0.00 0.00 37 1008.5
20221128035518 75 248 1.0 6.0 0.00 0.00 0.00 37 1008.5
20221128034518 75 248 1.0 5.0 0.00 0.00 0.00 38 1008.6
20221128033518 74 0.0 7.0 0.00 0.00 0.00 41 1008.7
20221128032520 74 248 1.0 12.0 0.00 0.00 0.00 41 1008.8
20221128031518 73 0.0 7.0 0.00 0.00 0.00 41 1008.9
20221128030518 73 270 1.0 8.0 0.00 0.00 0.00 44 1008.9
20221128025518 72 203 1.0 3.0 0.00 0.00 0.00 45 1008.9
20221128024518 73 293 1.0 7.0 0.00 0.00 0.00 44 1009.0
20221128023518 73 248 1.0 7.0 0.00 0.00 0.00 43 1009.2
20221128022518 72 0.0 5.0 0.00 0.00 0.00 45 1009.3
20221128021518 72 0.0 3.0 0.00 0.00 0.00 44 1009.3
20221128020518 72 225 1.0 4.0 0.00 0.00 0.00 43 1009.3
20221128015518 73 0.0 2.0 0.00 0.00 0.00 43 1009.4
20221128014518 71 225 1.0 8.0 0.00 0.00 0.00 46 1009.4
20221128013518 70 248 1.0 6.0 0.00 0.00 0.00 45 1009.5
20221128012518 70 248 1.0 5.0 0.00 0.00 0.00 47 1009.6
20221128011517 69 0.0 0.0 0.00 0.00 0.00 50 1009.5
20221128010517 69 0.0 6.0 0.00 0.00 0.00 49 1009.7
20221128005518 69 203 1.0 4.0 0.00 0.00 0.00 50 1009.7
20221128004518 69 0.0 1.0 0.00 0.00 0.00 50 1009.8
20221128003517 68 248 1.0 4.0 0.00 0.00 0.00 50 1009.7
20221128002517 67 0.0 4.0 0.00 0.00 0.00 52 1009.7
20221128001518 67 0.0 3.0 0.00 0.00 0.00 53 1009.6
20221128000517 67 225 1.0 4.0 0.00 0.00 0.00 54 1009.7
20221127235517 67 225 1.0 5.0 0.00 0.00 0.00 54 1009.8
20221127234518 67 180 1.0 3.0 0.00 0.00 0.00 55 1009.9
20221127233518 67 248 1.0 7.0 0.00 0.00 0.00 52 1009.8
20221127232517 67 203 1.0 4.0 0.00 0.00 0.00 53 1009.9
20221127231522 66 0.0 1.0 0.00 0.00 0.00 55 1010.0
20221127230517 65 0.0 3.0 0.00 0.00 0.00 56 1010.0
20221127225519 65 180 1.0 4.0 0.00 0.00 0.00 57 1009.9
20221127224517 65 225 1.0 4.0 0.00 0.00 0.00 58 1009.8
20221127223517 64 0.0 6.0 0.00 0.00 0.00 60 1009.8
20221127222517 64 0.0 3.0 0.00 0.00 0.00 63 1009.7
20221127221517 64 0.0 2.0 0.00 0.00 0.00 65 1009.7
20221127220517 63 0.0 5.0 0.00 0.00 0.00 67 1009.8
20221127215517 63 0.0 2.0 0.00 0.00 0.00 68 1009.6
20221127214517 63 0.0 5.0 0.00 0.00 0.00 68 1009.6
20221127213517 62 180 1.0 4.0 0.00 0.00 0.00 69 1009.4
20221127212517 62 0.0 2.0 0.00 0.00 0.00 71 1009.3
20221127211517 61 0.0 0.0 0.00 0.00 0.00 73 1009.1
20221127210517 61 0.0 0.0 0.00 0.00 0.00 75 1009.0
20221127205517 60 0.0 0.0 0.00 0.00 0.00 77 1009.0
20221127204517 59 0.0 0.0 0.00 0.00 0.00 80 1009.0
20221127203517 58 0.0 0.0 0.00 0.00 0.00 81 1009.0
20221127202522 57 0.0 0.0 0.00 0.00 0.00 84 1009.0
20221127201517 56 0.0 0.0 0.00 0.00 0.00 87 1009.0
20221127200517 55 0.0 0.0 0.00 0.00 0.00 89 1009.0
20221127195517 54 0.0 0.0 0.00 0.00 0.00 90 1008.9
20221127194517 53 0.0 0.0 0.00 0.00 0.00 90 1008.8
20221127193517 52 0.0 0.0 0.00 0.00 0.00 89 1008.6
20221127192517 52 0.0 0.0 0.00 0.00 0.00 88 1008.4
20221127191519 52 0.0 0.0 0.00 0.00 0.00 87 1008.3
20221127190517 52 0.0 0.0 0.00 0.00 0.00 87 1008.2
20221127185516 53 0.0 0.0 0.00 0.00 0.00 87 1008.1